Wind_Speed
8 7 7 8 8 10 11 12 13 12 11 13 14 15 17 20 22 22 21 20 17 17 16 15 15 15 15 16 16 17 18 19 20 19 19 18 18 18 18 18 19 18 19
8 7 6 8 9 8 6 8 11 11 10 11 13 15 18 22 22 21 20 18 17 16 16 15 15 15 16 17 19 19 20 20 21 21 22 21 21 19 19 19 18 18 17
7 5 6 9 10 9 10 9 12 13 12 13 15 17 19 20 20 19 19 16 15 15 15 14 15 17 18 19 20 21 21 22 23 24 25 25 22 21 19 19 18 19 20
9 10 8 8 7 9 9 7 11 12 12 13 15 18 19 19 19 18 17 15 15 14 15 16 17 17 17 18 19 20 22 24 25 25 26 26 25 23 21 19 18 19 19
8 6 6 7 8 9 7 6 8 8 9 12 13 15 17 18 18 18 16 15 15 17 17 16 16 15 16 16 17 19 21 24 26 27 27 26 26 24 21 20 20 20 19
8 6 5 5 6 7 7 4 3 2 4 9 12 14 15 15 16 16 15 16 17 17 16 14 13 13 14 15 16 17 19 22 24 26 27 26 26 26 23 20 21 20 19
7 8 8 6 6 6 6 5 4 4 5 7 11 13 14 14 14 14 14 14 16 15 14 12 11 11 12 13 14 16 19 21 23 25 26 27 26 26 25 22 19 20 19
7 5 7 5 7 4 7 6 3 2 2 6 10 13 13 14 14 14 14 13 12 12 11 9 8 8 8 10 12 14 17 19 21 23 25 27 27 26 27 25 23 22 22
5 6 4 3 4 6 6 8 5 3 3 5 8 10 12 13 13 12 12 11 10 9 7 7 6 4 5 8 10 12 15 17 19 21 24 27 27 26 25 27 24 24 24
7 6 6 5 4 3 8 9 5 6 6 7 8 10 9 12 12 11 11 9 9 7 5 4 2 0 3 5 8 11 13 16 18 21 23 25 27 27 26 25 25 24 24
7 5 5 4 4 4 7 7 5 5 11 7 6 8 8 9 11 11 10 11 10 8 7 5 3 4 5 6 8 10 12 15 18 21 22 23 25 26 27 26 25 23 23
3 3 3 6 5 5 4 5 7 7 12 10 9 8 7 7 9 9 10 11 10 10 8 6 6 6 8 9 11 12 13 14 16 19 21 22 23 24 25 25 24 23 22
4 4 3 3 4 5 5 7 9 9 13 14 10 9 8 7 8 8 9 9 8 9 10 10 8 9 12 12 13 13 14 15 17 18 20 21 22 23 24 24 24 21 22
5 5 3 3 1 3 5 6 8 13 14 14 14 13 11 11 11 11 10 9 9 9 11 11 12 13 14 14 15 16 14 15 17 19 20 21 22 24 24 24 23 21 19
6 7 4 3 2 4 3 3 4 7 11 14 16 17 16 17 17 15 13 12 12 13 13 14 17 18 17 15 18 19 15 14 17 20 21 21 22 23 24 23 22 21 19
9 5 7 6 6 6 5 4 3 4 7 13 16 15 15 20 21 20 19 17 16 17 17 18 20 22 22 22 19 17 17 17 19 23 24 22 22 23 23 23 22 21 19
10 9 9 11 9 8 7 6 5 5 7 9 11 13 15 16 19 22 24 24 22 23 23 22 25 24 24 25 24 24 23 23 25 25 25 22 22 22 23 22 21 20 19
13 12 12 11 11 10 10 9 7 8 8 8 9 9 12 12 14 18 21 21 23 26 26 23 22 23 24 26 28 28 28 27 27 24 22 22 21 21 21 20 19 19 19
17 17 16 14 13 12 12 10 9 9 9 10 11 11 12 12 11 12 15 18 21 21 22 20 18 17 18 20 21 22 21 20 20 20 20 20 20 21 21 19 18 19 20
17 18 17 17 16 16 16 15 13 13 12 12 13 13 14 14 13 13 14 14 16 17 17 17 16 15 15 16 18 19 18 19 17 18 19 20 21 22 22 20 18 19 21
18 18 17 17 17 17 16 16 15 14 14 15 16 15 16 17 17 17 17 17 17 17 17 17 15 14 13 14 18 19 20 19 16 17 18 18 20 20 23 21 19 19 20
22 21 20 20 19 18 16 17 16 15 15 15 15 15 16 18 18 19 20 21 21 21 21 20 18 18 18 19 20 21 22 21 18 17 20 14 18 18 23 23 21 20 19
27 26 24 24 23 20 21 20 19 18 18 18 17 18 18 18 20 21 20 20 21 21 22 23 23 21 22 22 25 24 25 25 24 20 24 18 20 19 23 24 23 21 21
29 29 28 25 24 24 24 24 23 23 23 23 23 22 22 21 23 24 23 22 22 23 25 27 27 25 26 24 27 28 28 28 27 24 27 25 23 22 22 24 26 24 23
32 27 32 29 27 28 24 22 24 25 25 25 25 26 26 26 25 25 27 27 26 25 27 29 31 30 29 29 30 31 30 32 31 28 28 31 25 27 25 22 25 27 26
43 48 34 34 31 27 25 29 28 27 25 26 27 29 30 31 29 27 28 28 29 29 29 29 30 32 32 31 31 33 33 35 34 34 25 34 31 30 31 23 23 26 28
Wind_Direction
115 90 84 83 102 90 93 97 101 105 110 112 110 109 109 108 108 110 109 110 109 106 104 99 91 81 71 62 56 50 44 38 33 28 24 21 17 13 8 5 6 8 7
133 101 103 90 115 102 118 92 101 114 107 108 109 115 118 116 116 115 113 114 111 108 104 98 88 77 69 63 56 49 44 39 34 28 24 21 18 13 11 6 5 11 4
143 144 127 110 118 117 121 110 113 118 113 111 114 122 122 119 117 118 117 115 113 112 108 96 87 80 71 64 57 51 45 41 34 28 23 24 17 16 16 9 9 11 11
132 143 131 122 115 118 123 121 122 121 116 115 123 128 127 124 123 122 122 117 111 108 104 99 90 81 73 65 59 53 46 40 36 28 22 21 20 20 18 16 12 12 12
137 137 120 121 136 130 132 118 114 118 125 125 128 133 134 136 135 131 126 117 113 111 108 101 94 84 73 61 53 49 45 40 35 29 22 18 19 23 23 19 18 12 13
140 142 143 160 156 158 142 108 88 115 151 141 138 139 144 146 142 138 133 125 120 118 114 106 93 80 69 58 48 42 40 40 34 29 23 18 18 21 26 28 19 14 13
156 156 157 160 172 162 172 155 111 41 173 165 149 150 153 153 151 146 142 133 129 127 121 109 93 77 63 52 43 37 34 32 32 27 23 17 17 19 24 27 22 19 18
162 157 149 169 176 182 185 152 155 74 112 168 161 158 162 164 163 161 156 150 142 133 124 112 94 74 59 51 39 32 31 27 28 24 21 16 14 17 21 24 22 23 25
182 171 178 179 184 191 194 182 193 196 165 154 155 162 167 172 176 174 173 168 157 148 139 121 102 79 43 35 31 26 25 22 20 21 18 15 11 12 17 20 24 22 24
190 204 187 194 209 230 197 197 198 190 171 154 157 166 164 177 180 185 190 184 174 173 164 159 141 88 9 10 7 13 16 17 14 14 15 12 8 7 10 14 19 22 23
194 198 194 214 213 198 183 197 198 193 195 198 207 190 170 173 183 188 192 195 194 199 209 225 248 280 312 332 342 346 3 7 11 11 9 8 5 6 6 9 10 18 22
183 207 237 228 220 210 207 215 223 212 197 210 216 215 201 187 181 187 196 198 200 208 221 233 251 284 300 315 322 329 342 357 3 7 1 0 1 0 3 4 5 5 14
184 211 230 236 236 237 256 242 223 224 208 212 210 220 236 218 219 210 208 214 213 220 225 235 248 269 285 300 315 318 328 340 351 357 352 352 353 355 356 356 1 357 1
189 214 205 191 205 246 241 249 236 219 217 217 216 219 232 245 257 239 236 236 241 253 255 265 266 271 286 298 302 307 314 328 338 346 344 344 344 348 349 349 351 353 351
215 194 208 241 234 247 245 231 232 236 231 222 224 231 234 241 248 253 253 254 259 265 273 274 281 285 289 289 294 294 295 311 325 332 336 337 337 339 339 341 342 345 345
209 219 223 237 258 256 241 222 225 240 237 235 237 243 248 248 247 251 254 260 265 271 273 276 282 284 289 295 296 291 290 301 313 321 324 327 332 330 331 333 335 338 341
234 233 232 240 240 247 248 241 235 245 252 248 250 254 255 256 255 256 256 261 268 275 279 278 278 274 278 284 284 288 290 296 303 310 313 320 323 323 325 330 331 333 338
228 233 246 240 243 231 232 232 235 238 251 255 258 252 262 265 267 269 264 262 266 275 280 285 276 272 278 282 281 283 286 290 296 303 311 315 317 320 324 326 330 333 331
229 232 240 237 235 241 233 235 237 244 245 248 251 255 260 265 268 274 272 271 273 275 278 282 282 280 281 282 286 291 293 293 300 301 307 312 314 318 320 325 332 336 330
233 232 229 232 236 241 240 246 245 246 247 250 251 256 259 264 263 265 268 272 276 280 284 285 286 286 286 285 288 289 290 295 298 301 305 307 309 313 316 324 331 327 324
228 230 231 233 239 240 242 247 250 251 253 255 259 261 263 265 268 268 271 270 274 277 278 280 284 284 284 286 287 290 295 297 300 300 296 301 303 306 307 317 326 325 317
228 230 233 235 238 242 244 247 250 251 251 254 260 262 264 267 267 268 271 274 274 277 279 280 281 284 283 282 282 286 290 294 298 295 294 291 291 295 297 309 317 322 321
243 241 238 243 245 244 250 250 252 252 254 255 255 258 259 262 262 261 262 268 271 275 279 278 280 281 279 279 281 285 289 296 301 304 298 294 294 294 294 300 306 311 314
242 245 245 247 246 246 247 250 250 250 253 254 259 263 262 264 266 271 271 270 271 274 276 277 280 281 282 283 285 287 291 292 292 296 294 293 294 291 292 297 300 303 306
238 245 250 248 248 250 248 265 259 257 260 255 259 266 266 266 266 266 270 272 270 268 271 277 280 281 282 284 285 285 287 288 291 291 294 294 292 289 288 288 289 294 296
239 247 256 249 246 247 258 270 262 271 266 266 266 266 267 269 271 269 270 272 272 272 272 273 275 280 282 283 283 285 285 286 287 289 293 292 293 293 291 285 279 283 287
Height
3239 3240 3239 3241 3240 3240 3241 3242 3243 3243 3244 3244 3244 3244 3244 3244 3245 3246 3247 3248 3249 3248 3248 3248 3248 3247 3246 3245 3244 3242 3240 3238 3235 3232 3229 3226 3224 3221 3217 3214 3210 3207 3202
3241 3242 3242 3243 3244 3244 3244 3245 3245 3246 3247 3247 3247 3247 3247 3247 3248 3249 3250 3250 3251 3252 3252 3252 3251 3250 3249 3248 3246 3245 3242 3240 3237 3233 3230 3227 3224 3221 3218 3214 3211 3206 3203
3243 3244 3244 3246 3246 3246 3246 3247 3248 3248 3249 3249 3249 3250 3250 3251 3252 3253 3253 3254 3254 3254 3254 3254 3254 3253 3252 3251 3249 3247 3245 3242 3239 3235 3232 3228 3224 3221 3218 3215 3211 3207 3203
3245 3246 3247 3247 3248 3249 3249 3249 3250 3251 3251 3252 3252 3252 3253 3254 3255 3256 3257 3257 3257 3257 3257 3257 3257 3256 3255 3254 3252 3250 3248 3245 3241 3237 3234 3230 3226 3222 3218 3215 3211 3207 3204
3246 3247 3248 3249 3250 3251 3252 3252 3252 3252 3253 3254 3255 3255 3256 3257 3258 3259 3260 3261 3260 3260 3260 3260 3260 3259 3258 3256 3255 3253 3250 3247 3243 3240 3236 3232 3227 3223 3220 3216 3212 3209 3205
3247 3249 3250 3251 3252 3252 3253 3253 3254 3254 3255 3256 3257 3258 3259 3261 3262 3262 3263 3263 3263 3263 3263 3263 3262 3262 3260 3259 3257 3255 3252 3249 3245 3242 3238 3234 3230 3225 3221 3218 3214 3210 3206
3249 3249 3250 3251 3252 3253 3254 3255 3255 3256 3256 3256 3258 3260 3261 3263 3264 3265 3266 3266 3266 3266 3265 3265 3265 3264 3263 3261 3259 3257 3254 3251 3248 3245 3240 3236 3232 3228 3223 3219 3217 3211 3209
3248 3249 3250 3252 3252 3254 3255 3255 3256 3257 3258 3258 3260 3261 3263 3265 3265 3267 3268 3268 3268 3268 3268 3268 3267 3266 3265 3263 3261 3259 3256 3253 3250 3246 3242 3239 3234 3230 3226 3221 3217 3213 3210
3248 3249 3250 3251 3252 3254 3255 3256 3257 3259 3259 3260 3261 3263 3264 3265 3267 3268 3269 3269 3270 3271 3270 3269 3268 3267 3266 3265 3263 3260 3257 3254 3251 3248 3244 3241 3237 3232 3229 3224 3220 3216 3212
3248 3250 3250 3251 3253 3253 3254 3256 3257 3259 3260 3261 3262 3263 3264 3265 3267 3269 3269 3270 3271 3272 3271 3270 3269 3268 3267 3266 3264 3262 3259 3256 3253 3250 3247 3243 3239 3235 3231 3227 3223 3218 3214
3248 3249 3251 3252 3252 3254 3255 3256 3257 3258 3261 3262 3264 3264 3265 3265 3267 3268 3269 3271 3271 3272 3271 3270 3270 3269 3268 3266 3264 3262 3260 3257 3254 3251 3248 3244 3240 3236 3232 3229 3225 3221 3216
3248 3249 3251 3252 3253 3254 3255 3255 3256 3257 3259 3262 3263 3264 3265 3266 3267 3268 3269 3270 3271 3271 3271 3270 3270 3269 3268 3266 3265 3263 3260 3258 3255 3252 3248 3245 3242 3238 3234 3230 3227 3223 3219
3248 3249 3250 3251 3251 3252 3254 3255 3255 3257 3258 3260 3262 3264 3264 3265 3266 3268 3268 3269 3270 3270 3270 3269 3268 3267 3266 3265 3264 3262 3260 3257 3255 3252 3248 3245 3242 3239 3235 3231 3228 3224 3221
3248 3249 3250 3250 3250 3251 3252 3253 3254 3255 3257 3258 3260 3262 3264 3264 3265 3266 3267 3268 3269 3269 3268 3268 3267 3266 3265 3264 3262 3260 3258 3256 3254 3251 3249 3246 3242 3239 3235 3231 3228 3225 3221
3247 3248 3249 3250 3250 3251 3251 3252 3252 3253 3254 3256 3258 3260 3261 3262 3263 3264 3265 3266 3266 3266 3266 3265 3264 3264 3263 3262 3260 3258 3256 3254 3252 3250 3247 3245 3242 3239 3235 3231 3228 3224 3222
3245 3247 3248 3248 3249 3250 3250 3250 3251 3252 3253 3254 3256 3257 3258 3259 3260 3261 3262 3263 3263 3264 3263 3262 3261 3260 3259 3258 3256 3254 3253 3252 3250 3248 3245 3243 3241 3238 3234 3230 3227 3224 3221
3243 3245 3246 3247 3248 3248 3249 3250 3250 3251 3252 3253 3254 3255 3255 3255 3256 3257 3258 3259 3259 3259 3259 3258 3257 3256 3255 3253 3252 3251 3250 3249 3247 3245 3242 3241 3239 3236 3233 3229 3226 3223 3220
3239 3241 3243 3244 3245 3246 3247 3248 3249 3250 3251 3252 3252 3253 3253 3253 3253 3253 3254 3254 3254 3254 3254 3252 3252 3251 3250 3249 3247 3247 3246 3245 3243 3241 3239 3236 3235 3233 3231 3227 3224 3221 3219
3236 3237 3239 3241 3242 3244 3245 3245 3247 3248 3249 3250 3250 3251 3251 3251 3250 3250 3250 3250 3250 3249 3248 3247 3247 3247 3246 3245 3243 3242 3241 3240 3239 3237 3235 3233 3232 3230 3227 3225 3223 3220 3217
3232 3234 3235 3238 3240 3241 3242 3243 3244 3245 3247 3247 3248 3249 3249 3248 3248 3248 3248 3248 3247 3246 3245 3244 3244 3243 3242 3241 3239 3238 3238 3236 3236 3235 3233 3231 3230 3227 3225 3223 3221 3218 3215
3229 3231 3233 3235 3236 3237 3238 3240 3241 3242 3243 3245 3246 3246 3247 3246 3246 3246 3245 3245 3244 3243 3242 3241 3240 3240 3239 3238 3236 3235 3234 3234 3234 3233 3231 3230 3228 3225 3222 3220 3219 3216 3213
3225 3227 3229 3230 3231 3232 3235 3236 3237 3238 3239 3240 3242 3242 3243 3243 3242 3242 3242 3242 3241 3241 3240 3239 3238 3238 3237 3235 3233 3231 3230 3229 3230 3230 3227 3228 3224 3223 3219 3217 3216 3214 3211
3220 3222 3223 3225 3227 3228 3230 3232 3233 3235 3236 3236 3236 3237 3237 3237 3237 3236 3236 3237 3237 3237 3236 3235 3234 3234 3232 3231 3229 3229 3227 3226 3225 3225 3222 3222 3221 3219 3216 3214 3212 3210 3208
3213 3215 3218 3219 3221 3222 3223 3226 3228 3229 3230 3231 3231 3232 3233 3233 3232 3232 3232 3232 3232 3233 3232 3230 3229 3230 3229 3229 3226 3224 3222 3221 3220 3220 3216 3215 3214 3213 3212 3210 3207 3205 3204
3205 3208 3211 3213 3215 3218 3219 3221 3223 3224 3225 3225 3226 3226 3226 3226 3226 3226 3226 3227 3226 3225 3225 3224 3223 3223 3223 3222 3220 3218 3218 3214 3213 3214 3212 3207 3209 3206 3205 3206 3203 3200 3198
3198 3201 3203 3206 3210 3213 3214 3216 3217 3218 3218 3219 3220 3220 3220 3220 3220 3220 3219 3219 3219 3220 3218 3219 3218 3216 3215 3216 3214 3212 3211 3207 3205 3204 3208 3200 3200 3199 3197 3200 3199 3196 3193